User: anonymous   Login
Location: Caltech
(34.1382°N, 118.1253°W)
Time: 17:48:48
(UTC-07:00)
Language:

ADEOS II - Orbit

View from above orbital plane
View from above orbital plane
View from above satellite
View from above satellite

Ground track
Ground track

The orbit data is extracted from the following two-line orbital elements,

1 27597U 02056A   17295.56844322 +.00000072 +00000-0 +46649-4 0  9993
2 27597 098.3863 259.8203 0000958 029.5389 330.5846 14.27312151773593
Epoch (UTC): 22 October 2017 13:38:33
Eccentricity: 0.0000958
inclination: 98.3863°
perigee height: 800 km
apogee height: 801 km
right ascension of ascending node: 259.8203°
argument of perigee: 29.5389°
revolutions per day: 14.27312151
mean anomaly at epoch: 330.5846°
orbit number at epoch: 77359

The dashed part of the orbit path shows where the satellite is in the earth's shadow,  

DLR